Simultaneous Nadir Overpasses (SNOs) Predictions

Prediction of SNOs between GOES-15 and TERRA Satellite Orbit:

Table of predicted SNOs for the next 14.0 days since TLE Epoch: 12/13/2014
Index Date Time (GOES-15) GOES-15 Lat,Lon TERRA Lat,Lon Distance(km) Time Diff (sec)
1 12/14/2014 19:19:01 -0.09,-135.42 -0.69,-132.62 318.01 80
2 12/15/2014 07:43:04 0.07,-135.42 -0.45,-137.80 271.54 80
3 12/17/2014 07:28:12 0.08,-135.43 0.20,-134.85 65.90 80
4 12/19/2014 07:16:00 0.08,-135.43 0.85,-131.89 402.55 80
5 12/19/2014 19:39:55 -0.06,-135.43 0.27,-137.04 183.54 80
6 12/21/2014 19:25:03 -0.07,-135.42 -0.37,-134.09 152.12 80
7 12/22/2014 07:49:06 0.05,-135.42 -0.78,-139.27 437.34 80
8 12/23/2014 19:12:51 -0.07,-135.41 -1.01,-131.13 487.00 80
9 12/24/2014 07:36:54
